Regional Weather Roundup
Issued by NWS Sioux Falls, SD

Home | Current Version | Previous Version | Graphics & Text | Print | Product List | Glossary On
Versions: 1 2 3 4 5 6 7 8 9 10 11 12 13 14 15 16 17 18 19 20 21 22 23 24 25 26 27 28 29 30 31 32 33 34 35 36 37 38 39 40 41 42 43 44 45 46 47 48 49 50
000
ASUS43 KFSD 220902
RWRFSD

WEATHER ROUNDUP FOR SE SOUTH DAKOTA/SW MINNESOTA/NW IOWA
NATIONAL WEATHER SERVICE SIOUX FALLS SD
400 AM CDT FRI AUG 22 2014

NOTE: "FAIR" INDICATES FEW OR NO CLOUDS BELOW 12,000 FEET WITH NO
SIGNIFICANT WEATHER AND OR OBSTRUCTIONS TO VISIBILITY.


SDZ038>040-050-052>070-221000-
SOUTHEAST SOUTH DAKOTA

CITY           SKY/WX    TMP DP  RH WIND       PRES   REMARKS
CHAMBERLAIN    CLEAR     64  63  95 CALM      29.93S
HURON          FOG       59  58  96 NW3       29.90F VSB 1
MADISON        FAIR      64  64 100 N5        29.93S
MITCHELL       CLEAR     64  63  96 NW5       29.91S
SIOUX FALLS    CLEAR     64  63  96 NE3       29.92R
WINNER         FAIR      64  61  90 E6        29.94S
YANKTON        CLEAR     68  66  94 NW3       29.90R
$$

MNZ071-072-080-081-089-090-097-098-221000-
SOUTHWEST MINNESOTA

CITY           SKY/WX    TMP DP  RH WIND       PRES   REMARKS
FAIRMONT       MOCLDY    68  63  83 MISG      29.89F
JACKSON        PTCLDY    68  64  88 CALM      29.92R
LUVERNE        CLEAR     64  63  94 CALM      29.92R
MARSHALL       CLEAR     64  63  94 W6        29.90R
MONTEVIDEO     LGT RAIN  70  68  94 N3        29.90S VSB 1/4
PIPESTONE      CLEAR     66  64  94 CALM      29.93R
REDWOOD FALLS  FOG       71  71 100 CALM      29.90R VSB 1/2
TRACY          CLEAR     69  68  94 CALM      29.92R
WINDOM         CLEAR     68  66  94 CALM      29.92R
WORTHINGTON    PTCLDY    66   9  10 CALM      29.94R
$$

IAZ001>003-012>014-020>022-031-032-NEZ013-014-SDZ071-221000-
NORTHWEST IOWA

CITY           SKY/WX    TMP DP  RH WIND       PRES   REMARKS
CHEROKEE       MOCLDY    73  73 100 CALM      29.89S FOG
DENISON        CLOUDY    75  75 100 CALM      29.87S
ESTHERVILLE    PTCLDY    66  65  96 W5        29.91R
LE MARS          N/A     72  70  94 N3        29.91R
ORANGE CITY    PTCLDY    73  70  88 NE5       29.91S
SHELDON        PTCLDY    68  68 100 NE5       29.90S
SIOUX CITY     MOCLDY    75  72  90 CALM      29.88R
SPENCER        MOCLDY    67  65  93 CALM      29.91R
STORM LAKE     CLOUDY    73  73 100 CALM      29.91S
$$

ABBREVIATIONS USED IN REMARKS
   TC - TEMPERATURE IN CELSIUS
  WCI - WIND CHILL INDEX
   HX - HEAT INDEX
  VSB - VISIBILITY



USA.gov is the U.S. government's official web portal to all federal, state and local government web resources and services.